[[{"header":{"parameterUnit":"m.s-1","parameterCategory":1,"la1":30.2991,"la2":30.254,"lo1":-89.0895,"lo2":-89.0444,"dy":0.0017,"dx":0.0017,"nx":28,"ny":28,"refTime":"2024-08-03T03:00:00:Z","depth":0,"parameterNumber":2,"parameterNumberName":"U-component_of_WINDS"},"data":[0,0,0,0,0,0,0,0,0,0,0,0,0,0,0,0,0,0,0,0,0,0,0,0,0,0,0,0,0,0,0,0,0,0,0,0,0,0,0,0,0,0,0,0,0,0,0,0,0,0,0,0,0,0,0,0,0,0,3.0255,3.0256,0,3.0342,3.0343,3.0344,3.0288,3.0286,3.0283,3.028,3.037,3.0375,3.038,0,0,0,0,0,0,0,0,0,0,0,0,0,3.0043,3.0047,3.0255,3.0256,3.0257,3.0342,3.0343,3.0344,3.0289,3.0285,3.0282,3.0279,3.0369,3.0374,3.038,0,0,0,0,0,0,0,0,0,0,0,0,0,3.0133,3.0048,3.0255,3.024,3.0239,3.0342,3.0343,3.0345,3.0289,3.0285,3.0281,3.0278,3.0367,3.0374,3.0381,3.0504,0,0,3.0403,3.0406,0,0,0,0,0,0,0,0,3.0128,3.0141,3.0241,3.0241,3.0241,3.03,3.0301,3.0398,3.029,3.027,3.028,3.0276,3.035,3.0358,3.0383,3.0508,3.0512,3.0404,3.0408,3.0411,3.0413,0,0,0,0,0,0,0,3.0122,3.0137,3.029,3.0242,3.0242,3.0229,3.0238,3.0319,3.0331,3.0272,3.0268,3.0279,3.0349,3.0377,3.0385,3.0513,3.0403,3.041,3.0414,3.0417,3.0745,3.0749,0,0,0,0,0,0,3.0117,3.0132,3.0287,3.0292,3.0174,3.0236,3.0246,3.0285,3.033,3.0333,3.0282,3.0276,3.0366,3.0377,3.0388,3.0537,3.0411,3.0418,3.0422,3.0741,3.0746,3.0751,0,0,0,0,0,0,3.0112,3.0131,3.0283,3.0211,3.023,3.0244,3.0289,3.0289,3.0316,3.0338,3.034,3.0308,3.0363,3.0378,3.0476,3.0539,3.0421,3.0428,3.0736,3.0743,3.0749,3.0834,0,0,0,0,0,0,3.0106,3.013,3.0176,3.0213,3.0234,3.0369,3.0293,3.0293,3.0329,3.0321,3.0362,3.0365,3.0362,3.0465,3.0483,3.0547,3.0433,3.073,3.0739,3.0747,3.0825,3.0842,3.0857,0,0,0,0,0,3.0099,3.0196,3.0179,3.0198,3.0292,3.0373,3.0385,3.0378,3.0334,3.0381,3.0395,3.0364,3.0529,3.0476,3.0495,3.0562,3.0726,3.0736,3.0746,3.0818,3.0839,3.0856,0,0,0,0,0,0,3.0166,3.02,3.0181,3.0293,3.0331,3.0363,3.0422,3.04,3.0451,3.0442,3.0432,3.0442,3.0545,3.0563,3.0503,3.0685,3.0621,3.0635,3.0669,3.0689,3.0704,3.0698,3.0439,0,0,0,0,0,3.0194,3.0256,3.0283,3.0379,3.0399,3.0408,3.0443,3.0435,3.0473,3.0489,3.051,3.0549,3.061,3.065,3.0707,3.0827,3.0837,3.0883,3.0899,3.0912,3.0924,3.0992,3.1013,3.0783,3.0783,3.0783,0,0,3.0252,3.0278,3.0318,3.0393,3.0421,3.0488,3.0421,3.0494,3.0543,3.05,3.0594,3.0612,3.0655,3.0765,3.0815,3.0783,3.099,3.0924,3.0934,3.094,3.1004,3.1026,3.1045,3.079,3.0789,3.0788,0,0,3.0391,3.0417,3.0501,3.0531,3.0574,3.058,3.06,3.0637,3.0647,3.0742,3.0711,3.077,3.0874,3.0907,3.0937,3.1092,3.1066,3.1111,3.1194,3.1259,3.1277,3.1293,3.135,3.1371,3.1123,3.1123,3.1124,0,3.0458,3.0556,3.0547,3.0622,3.0657,3.0621,3.0707,3.0736,3.0797,3.0822,3.0786,3.0918,3.0944,3.1063,3.1101,3.1126,3.115,3.1106,3.1275,3.1291,3.1306,3.1361,3.1382,3.1129,3.1128,3.1128,3.1127,0,3.0637,3.0705,3.0768,3.0828,3.0869,3.0949,3.0953,3.0997,3.0986,3.0996,3.1094,3.1124,3.1188,3.1215,3.1204,3.1333,3.1312,3.1276,3.1212,3.1334,3.1385,3.1405,3.1136,3.1134,3.1133,3.1132,0,0,3.082,3.0875,3.0898,3.0926,3.0972,3.1026,3.1105,3.1168,3.1206,3.1249,3.1317,3.1407,3.1374,3.1409,3.1402,3.1459,3.1583,3.1416,3.1417,3.1447,3.1729,3.1757,3.1781,3.1565,3.1569,3.1572,3.1726,0,3.0964,3.1102,3.1097,3.1226,3.1291,3.1259,3.1328,3.1365,3.1377,3.1434,3.1447,3.1512,3.1463,3.1484,3.154,3.1556,3.1639,3.1544,3.1629,3.1632,3.1621,3.1807,3.1836,3.1979,3.1745,3.1749,3.1751,0,3.1149,3.12,3.1336,3.1375,3.1402,3.1464,3.1522,3.1577,3.1619,3.1623,3.1663,3.1648,3.1729,3.1663,3.1777,3.1713,3.1747,3.176,3.1766,3.1774,3.17,3.1822,3.2024,3.2047,3.1782,3.1779,3.1777,0,3.1272,3.1374,3.1469,3.1493,3.1541,3.1586,3.1608,3.1646,3.1684,3.1735,3.1761,3.182,3.1853,3.19,3.1902,3.1853,3.2018,3.1951,3.2025,3.2025,3.2062,3.206,3.2274,3.2082,3.2082,3.2081,3.2081,0,3.1433,3.1518,3.1525,3.1583,3.1678,3.1672,3.1767,3.1784,3.1819,3.1881,3.1857,3.1916,3.1914,3.1975,3.1976,3.2072,3.2086,3.2093,3.2093,3.2096,3.2096,3.2119,3.211,3.2087,3.2086,3.2085,3.2084,0,3.1586,3.1594,3.1696,3.1733,3.1744,3.1813,3.1845,3.1902,3.1911,3.1991,3.201,3.2026,3.2096,3.2102,3.2183,3.2184,3.23,3.2288,3.2286,3.2285,3.236,3.2353,3.2598,3.2631,3.2416,3.2418,3.242,0,3.1689,3.1754,3.1799,3.1839,3.1864,3.1929,3.1968,3.1965,3.2008,3.2062,3.2112,3.218,3.2235,3.2349,3.2368,3.2431,3.2422,3.2503,3.2431,3.2433,3.2425,3.2422,3.2429,3.2517,3.252,3.2522,3.2523,0,3.1872,3.1873,3.1931,3.1992,3.204,3.2087,3.2131,3.2165,3.2168,3.2217,3.2289,3.2332,3.2415,3.2484,3.2546,3.2569,3.2548,3.2546,3.2567,3.2571,3.2568,3.2573,3.2326,3.254,3.2539,3.2537,3.2536,3.2536,3.2005,3.2062,3.2103,3.2169,3.2202,3.2244,3.23,3.2317,3.2377,3.2445,3.244,3.252,3.2562,3.2643,3.2672,3.2735,3.2708,3.2737,3.2745,3.2753,3.2762,3.2557,3.2746,3.2745,3.2745,3.2745,3.2744,0,3.2188,3.2213,3.2274,3.2337,3.2389,3.2364,3.2412,3.2458,3.2529,3.257,3.2624,3.2708,3.2775,3.2801,3.2866,3.2912,3.2904,3.293,3.2927,3.2933,3.2781,3.2757,3.2935,3.2935,3.2935,3.2935,3.2935,3.2935,3.2289,3.2385,3.2391,3.2504,3.2529,3.2607,3.2637,3.2677,3.271,3.2804,3.286,3.2876,3.2912,3.298,3.3041,3.3047,3.3073,3.3103,3.3105,3.2963,3.2944,3.2925,3.2903,3.3108,3.3109,3.3252,3.3253,3.3254]},{"header":{"parameterUnit":"m.s-1","parameterCategory":1,"la1":30.2991,"la2":30.254,"lo1":-89.0895,"lo2":-89.0444,"dy":0.0017,"dx":0.0017,"nx":28,"ny":28,"refTime":"2024-08-03T03:00:00:Z","depth":0,"parameterNumber":3,"parameterNumberName":"V-component_of_WINDS"},"data":[0,0,0,0,0,0,0,0,0,0,0,0,0,0,0,0,0,0,0,0,0,0,0,0,0,0,0,0,0,0,0,0,0,0,0,0,0,0,0,0,0,0,0,0,0,0,0,0,0,0,0,0,0,0,0,0,0,0,-1.7323,-1.7323,0,-1.7323,-1.7323,-1.7323,-1.7293,-1.7292,-1.7291,-1.729,-1.729,-1.7291,-1.7292,0,0,0,0,0,0,0,0,0,0,0,0,0,-1.7295,-1.7296,-1.7323,-1.7323,-1.7323,-1.7323,-1.7323,-1.7323,-1.7293,-1.7292,-1.7291,-1.729,-1.729,-1.7291,-1.7292,0,0,0,0,0,0,0,0,0,0,0,0,0,-1.7303,-1.7296,-1.7323,-1.7308,-1.7306,-1.7323,-1.7323,-1.7323,-1.7293,-1.7292,-1.729,-1.7289,-1.729,-1.7291,-1.7292,-1.7323,0,0,-1.7295,-1.7296,0,0,0,0,0,0,0,0,-1.7302,-1.7304,-1.731,-1.7309,-1.7307,-1.7306,-1.7313,-1.7323,-1.7293,-1.7298,-1.729,-1.7289,-1.7296,-1.7297,-1.73,-1.7323,-1.7323,-1.7295,-1.7296,-1.7296,-1.7297,0,0,0,0,0,0,0,-1.7302,-1.7303,-1.7323,-1.731,-1.7308,-1.7301,-1.73,-1.7315,-1.7304,-1.7297,-1.7295,-1.7296,-1.7296,-1.7299,-1.7299,-1.7323,-1.7295,-1.7296,-1.7297,-1.7297,-1.7371,-1.7372,0,0,0,0,0,0,-1.7303,-1.7303,-1.7323,-1.7323,-1.7302,-1.7302,-1.7302,-1.7308,-1.7304,-1.7302,-1.7297,-1.7294,-1.7297,-1.7298,-1.7299,-1.7335,-1.7296,-1.7297,-1.7298,-1.737,-1.7371,-1.7372,0,0,0,0,0,0,-1.7303,-1.7305,-1.7323,-1.7312,-1.7314,-1.7304,-1.7311,-1.7309,-1.7312,-1.7303,-1.7301,-1.7302,-1.7296,-1.7298,-1.7317,-1.7334,-1.7298,-1.7299,-1.7368,-1.737,-1.7372,-1.7407,0,0,0,0,0,0,-1.7302,-1.7305,-1.7317,-1.7313,-1.7315,-1.7341,-1.7312,-1.7309,-1.7314,-1.731,-1.7307,-1.7306,-1.7296,-1.7316,-1.7318,-1.7335,-1.73,-1.7366,-1.7369,-1.7371,-1.7404,-1.7409,-1.7414,0,0,0,0,0,-1.7301,-1.7327,-1.7318,-1.732,-1.7329,-1.7342,-1.7343,-1.733,-1.7315,-1.7327,-1.7321,-1.7306,-1.7332,-1.7318,-1.732,-1.7338,-1.7365,-1.7368,-1.7371,-1.7401,-1.7408,-1.7414,0,0,0,0,0,0,-1.7333,-1.7326,-1.7316,-1.7341,-1.7342,-1.7337,-1.7351,-1.7338,-1.7344,-1.734,-1.7325,-1.7325,-1.7346,-1.7344,-1.7328,-1.7368,-1.7346,-1.735,-1.7368,-1.7375,-1.738,-1.738,-1.7301,0,0,0,0,0,-1.7343,-1.7354,-1.7347,-1.737,-1.7371,-1.7361,-1.7366,-1.7357,-1.7357,-1.7357,-1.7353,-1.7354,-1.7363,-1.7369,-1.7376,-1.7404,-1.7402,-1.7417,-1.7422,-1.7427,-1.743,-1.7444,-1.745,-1.7382,-1.7382,-1.7382,0,0,-1.7364,-1.7361,-1.7369,-1.7376,-1.7376,-1.7388,-1.7362,-1.7375,-1.7383,-1.7359,-1.7377,-1.7375,-1.7375,-1.7398,-1.7408,-1.7397,-1.7448,-1.743,-1.7434,-1.7435,-1.7447,-1.7454,-1.746,-1.7384,-1.7384,-1.7383,0,0,-1.7408,-1.7407,-1.7426,-1.7426,-1.7426,-1.7419,-1.7424,-1.742,-1.7417,-1.7435,-1.7417,-1.7427,-1.7442,-1.7443,-1.7445,-1.7489,-1.7475,-1.7492,-1.7519,-1.7533,-1.7538,-1.7543,-1.7558,-1.7564,-1.7495,-1.7495,-1.7495,0,-1.7433,-1.745,-1.7437,-1.7451,-1.7455,-1.7434,-1.7452,-1.7453,-1.7456,-1.7459,-1.7446,-1.7465,-1.7463,-1.7486,-1.7497,-1.75,-1.7504,-1.7492,-1.7538,-1.7543,-1.7547,-1.7562,-1.7567,-1.7497,-1.7497,-1.7497,-1.7497,0,-1.7481,-1.7493,-1.7508,-1.7511,-1.7516,-1.7533,-1.7522,-1.7529,-1.7519,-1.7513,-1.7532,-1.7529,-1.7536,-1.7541,-1.7531,-1.7563,-1.7556,-1.7541,-1.7519,-1.7556,-1.7569,-1.7575,-1.75,-1.7499,-1.7499,-1.7498,0,0,-1.7544,-1.754,-1.7546,-1.7547,-1.7545,-1.7554,-1.757,-1.7576,-1.7582,-1.7585,-1.7597,-1.761,-1.7597,-1.76,-1.759,-1.7602,-1.7637,-1.7586,-1.7586,-1.7595,-1.7671,-1.7681,-1.7688,-1.7628,-1.7629,-1.763,-1.7671,0,-1.7586,-1.7612,-1.7601,-1.7628,-1.7639,-1.7619,-1.7633,-1.7633,-1.7629,-1.7637,-1.7632,-1.7641,-1.7623,-1.7624,-1.7636,-1.763,-1.7652,-1.7627,-1.7639,-1.7639,-1.7639,-1.7695,-1.7706,-1.7745,-1.7676,-1.7677,-1.7677,0,-1.7638,-1.7643,-1.7671,-1.7668,-1.7672,-1.7684,-1.7689,-1.7697,-1.7698,-1.7693,-1.7696,-1.7684,-1.7699,-1.7677,-1.7697,-1.7681,-1.7685,-1.7683,-1.7684,-1.7684,-1.766,-1.7696,-1.7757,-1.7763,-1.7685,-1.7685,-1.7684,0,-1.7681,-1.7694,-1.7713,-1.7715,-1.7711,-1.772,-1.7719,-1.7718,-1.7723,-1.7727,-1.773,-1.7736,-1.7739,-1.7744,-1.7733,-1.7719,-1.7755,-1.7732,-1.7751,-1.7752,-1.7759,-1.7759,-1.7822,-1.7763,-1.7763,-1.7763,-1.7763,0,-1.7728,-1.7746,-1.7732,-1.7744,-1.7763,-1.775,-1.777,-1.7766,-1.7766,-1.7776,-1.776,-1.777,-1.7756,-1.7764,-1.7756,-1.7774,-1.7776,-1.7772,-1.777,-1.7774,-1.7774,-1.7776,-1.7772,-1.7764,-1.7764,-1.7764,-1.7764,0,-1.7779,-1.777,-1.7789,-1.7785,-1.7784,-1.7799,-1.7794,-1.7805,-1.7799,-1.7812,-1.7815,-1.7805,-1.7815,-1.7805,-1.7814,-1.7808,-1.7832,-1.7826,-1.7832,-1.783,-1.7849,-1.7847,-1.7915,-1.7923,-1.786,-1.786,-1.7861,0,-1.781,-1.7823,-1.782,-1.7826,-1.7826,-1.7835,-1.784,-1.7828,-1.7833,-1.7834,-1.7844,-1.7852,-1.7858,-1.7874,-1.7868,-1.7874,-1.7868,-1.7891,-1.7869,-1.7872,-1.7868,-1.7867,-1.7868,-1.7895,-1.7896,-1.7897,-1.7897,0,-1.7865,-1.786,-1.7867,-1.7873,-1.7879,-1.7883,-1.7885,-1.7891,-1.7878,-1.7885,-1.7894,-1.7899,-1.7908,-1.7916,-1.792,-1.7919,-1.7906,-1.7904,-1.7909,-1.7913,-1.7915,-1.7914,-1.7844,-1.7903,-1.7902,-1.7902,-1.7902,-1.7901,-1.7906,-1.7917,-1.7917,-1.7925,-1.7926,-1.7929,-1.7938,-1.7933,-1.7941,-1.7947,-1.794,-1.7951,-1.7951,-1.7956,-1.7956,-1.7965,-1.7955,-1.7962,-1.7964,-1.7965,-1.7968,-1.7915,-1.7966,-1.7966,-1.7966,-1.7965,-1.7965,0,-1.796,-1.7959,-1.7967,-1.7971,-1.7978,-1.7965,-1.7967,-1.7974,-1.7984,-1.7985,-1.7991,-1.8002,-1.8009,-1.8004,-1.8011,-1.8019,-1.8013,-1.8021,-1.802,-1.802,-1.7977,-1.7972,-1.8025,-1.8025,-1.8025,-1.8025,-1.8025,-1.8025,-1.7989,-1.8007,-1.8002,-1.8019,-1.8018,-1.8029,-1.8031,-1.8034,-1.8035,-1.8047,-1.8054,-1.805,-1.8049,-1.8055,-1.8061,-1.806,-1.8063,-1.8073,-1.8069,-1.8029,-1.8023,-1.8017,-1.8012,-1.8074,-1.8074,-1.8111,-1.8111,-1.8112]}]]